Location: Te Maire Creek
(41.1333°S, 175.9167°E)
Time: 21:35:48
(UTC+00:00)

JB-3 - Pass Details

Date: 19 May 2024
Orbit: 509 x 563 km, 97.2° (Epoch: 22 June)

Event Time Altitude Azimuth Distance (km) Brightness Sun altitude
Rises 17:55:52 0° 167° (SSE) 2,682 7.8 -16.1°
Reaches altitude 10° 17:58:00 10° 164° (SSE) 1,778 6.9 -15.7°
Maximum altitude 18:01:49 72° 80° (E) 551 4.4 -15.0°
Drops below altitude 10° 18:05:34 10° 354° (N) 1,738 7.0 -14.3°
Sets 18:07:38 0° 351° (N) 2,615 7.9 -14.0°
